Weather History for Petaluma, CA

Change the Weather History Date:

Monday, March 3, 2014

  Actual Average (KAPC) Record (KAPC)
Temperature  
Mean Temperature 54 °F 51 °F  
Max Temperature 57 °F 62 °F 69 °F (2012)
Min Temperature 50 °F 40 °F 32 °F (2012)
Degree Days  
Heating Degree Days 12    
Month to date heating degree days  
Since 1 July heating degree days  
Cooling Degree Days 0    
Month to date cooling degree days  
Year to date cooling degree days  
Growing Degree Days 4 (Base 50)    
Moisture  
Dew Point 53 °F    
Average Humidity 97    
Maximum Humidity 100    
Minimum Humidity 82    
Precipitation  
Precipitation 0.33 in - 1.50 in (1991)
Month to date precipitation  
Year to date precipitation  
Since 1 July precipitation  
Sea Level Pressure  
Sea Level Pressure 30.12 in    
Wind  
Wind Speed 5 mph (ESE)    
Max Wind Speed 9 mph    
Max Gust Speed 16 mph    
Visibility 8 miles    
Events      
T = Trace of Precipitation, MM = Missing Value Source: NWS Daily Summary

Daily Weather History Graph

Daily Weather History Graph

Search for Another Location

Airport:

Trip Planner

Search our weather history database for the weather conditions in past years. The results will help you decide how hot, cold, wet, or windy it might be!

Date:

Astronomy

Mar. 03, 2014 Rise Set
Actual Time 6:39 AM PST 6:05 PM PST
Civil Twilight 6:12 AM PST 6:32 PM PST
Nautical Twilight 5:42 AM PST 7:02 PM PST
Astronomical Twilight 5:11 AM PST 7:33 PM PST
Moon 7:53 AM PST (3/3) 9:11 PM PST (3/3)
Length of Visible Light 12h 19m
Length of Day
11h 26m
Waxing Crescent, 8% of the Moon is Illuminated
Mar 3
Waxing Crescent
Mar 8
First Quarter
Mar 16
Full
Mar 23
Last Quarter
Mar 30
New

Hourly Weather History & Observations

Time (PST) Temp. Dew Point Humidity Pressure Visibility Wind Dir Wind Speed Gust Speed Precip Events Conditions
12:15 AM 51.8 °F 51.8 °F 100% 30.18 in 10.0 mi East 4.6 mph - N/A   Overcast
12:35 AM 50.0 °F 50.0 °F 100% 30.17 in 10.0 mi East 4.6 mph - N/A   Overcast
12:55 AM 50.0 °F 50.0 °F 100% 30.16 in 10.0 mi East 4.6 mph - N/A   Overcast
1:15 AM 50.0 °F 50.0 °F 100% 30.17 in 10.0 mi ESE 3.5 mph - N/A   Overcast
1:35 AM 50.0 °F 50.0 °F 100% 30.17 in 10.0 mi Calm Calm - N/A   Overcast
1:55 AM 50.0 °F 50.0 °F 100% 30.16 in 10.0 mi East 5.8 mph - N/A   Overcast
2:15 AM 51.8 °F 51.8 °F 100% 30.16 in 10.0 mi East 5.8 mph - N/A   Overcast
2:35 AM 53.6 °F 53.6 °F 100% 30.15 in 10.0 mi ESE 5.8 mph - N/A   Overcast
2:55 AM 53.6 °F 53.6 °F 100% 30.16 in 10.0 mi ESE 3.5 mph - N/A   Overcast
3:15 AM 51.8 °F 51.8 °F 100% 30.15 in 10.0 mi East 4.6 mph - N/A   Overcast
3:35 AM 53.6 °F 53.6 °F 100% 30.15 in 10.0 mi ESE 5.8 mph - N/A   Overcast
3:55 AM 51.8 °F 51.8 °F 100% 30.14 in 10.0 mi East 5.8 mph - N/A   Overcast
4:15 AM 53.6 °F 53.6 °F 100% 30.14 in 10.0 mi ESE 4.6 mph - N/A   Overcast
4:35 AM 53.6 °F 53.6 °F 100% 30.14 in 10.0 mi East 3.5 mph - N/A   Overcast
4:55 AM 53.6 °F 53.6 °F 100% 30.14 in 10.0 mi East 5.8 mph - N/A   Overcast
5:15 AM 53.6 °F 53.6 °F 100% 30.14 in 9.0 mi ESE 4.6 mph - N/A   Overcast
5:35 AM 53.6 °F 53.6 °F 100% 30.14 in 10.0 mi ESE 6.9 mph - N/A   Overcast
5:55 AM 53.6 °F 53.6 °F 100% 30.13 in 10.0 mi East 4.6 mph - N/A   Overcast
6:15 AM 53.6 °F 53.6 °F 100% 30.13 in 10.0 mi ESE 5.8 mph - N/A   Overcast
6:35 AM 53.6 °F 53.6 °F 100% 30.13 in 10.0 mi East 4.6 mph - N/A   Overcast
6:55 AM 53.6 °F 53.6 °F 100% 30.13 in 9.0 mi East 4.6 mph - N/A   Overcast
7:15 AM 53.6 °F 53.6 °F 100% 30.14 in 7.0 mi East 5.8 mph - N/A   Overcast
7:35 AM 53.6 °F 53.6 °F 100% 30.14 in 8.0 mi East 5.8 mph - N/A   Overcast
7:55 AM 53.6 °F 53.6 °F 100% 30.15 in 8.0 mi ESE 5.8 mph - N/A   Overcast
8:15 AM 53.6 °F 53.6 °F 100% 30.15 in 9.0 mi East 5.8 mph - N/A   Overcast
8:35 AM 53.6 °F 53.6 °F 100% 30.16 in 10.0 mi SE 5.8 mph - N/A   Overcast
8:55 AM 53.6 °F 53.6 °F 100% 30.16 in 10.0 mi SE 4.6 mph - N/A   Overcast
9:15 AM 53.6 °F 53.6 °F 100% 30.16 in 9.0 mi East 5.8 mph - N/A   Overcast
9:35 AM 53.6 °F 53.6 °F 100% 30.15 in 10.0 mi East 8.1 mph - N/A   Overcast
9:55 AM 55.4 °F 55.4 °F 100% 30.16 in 10.0 mi ESE 6.9 mph - N/A   Overcast
10:15 AM 55.4 °F 53.6 °F 94% 30.16 in 9.0 mi ESE 6.9 mph - N/A   Overcast
10:35 AM 55.4 °F 55.4 °F 100% 30.15 in 10.0 mi ESE 5.8 mph - N/A   Overcast
10:55 AM 55.4 °F 55.4 °F 100% 30.14 in 5.0 mi ESE 6.9 mph - N/A   Mostly Cloudy
11:15 AM 55.4 °F 53.6 °F 94% 30.14 in 10.0 mi ESE 8.1 mph - N/A   Overcast
11:35 AM 57.2 °F 53.6 °F 88% 30.14 in 10.0 mi SSE 9.2 mph - N/A   Overcast
11:55 AM 57.2 °F 53.6 °F 88% 30.13 in 10.0 mi ESE 8.1 mph - N/A   Overcast
12:15 PM 57.2 °F 53.6 °F 88% 30.13 in 10.0 mi SE 9.2 mph - N/A   Mostly Cloudy
12:35 PM 57.2 °F 51.8 °F 82% 30.12 in 10.0 mi SE 9.2 mph - N/A   Mostly Cloudy
12:55 PM 57.2 °F 53.6 °F 88% 30.13 in 10.0 mi SE 5.8 mph - N/A   Mostly Cloudy
1:15 PM 57.2 °F 53.6 °F 88% 30.12 in 10.0 mi ESE 6.9 mph - N/A   Scattered Clouds
1:35 PM 57.2 °F 53.6 °F 88% 30.11 in 10.0 mi ESE 5.8 mph - N/A   Mostly Cloudy
1:55 PM 57.2 °F 53.6 °F 88% 30.11 in 10.0 mi SE 8.1 mph - N/A   Overcast
2:15 PM 57.2 °F 53.6 °F 88% 30.10 in 10.0 mi SE 4.6 mph - N/A   Overcast
2:35 PM 57.2 °F 51.8 °F 82% 30.10 in 10.0 mi SE 5.8 mph - N/A   Overcast
2:55 PM 57.2 °F 51.8 °F 82% 30.09 in 10.0 mi SE 6.9 mph - N/A   Overcast
3:15 PM 57.2 °F 51.8 °F 82% 30.09 in 10.0 mi SE 4.6 mph - N/A   Overcast
3:35 PM 55.4 °F 53.6 °F 94% 30.09 in 6.0 mi ESE 4.6 mph - N/A   Overcast
3:55 PM 55.4 °F 55.4 °F 100% 30.09 in 5.0 mi East 4.6 mph - 0.01 in   Overcast
4:15 PM 55.4 °F 55.4 °F 100% 30.08 in 5.0 mi ESE 4.6 mph - 0.02 in   Overcast
4:35 PM 53.6 °F 53.6 °F 100% 30.08 in 5.0 mi SE 4.6 mph - 0.03 in   Overcast
4:55 PM 53.6 °F 53.6 °F 100% 30.08 in 5.0 mi ESE 4.6 mph - 0.05 in   Overcast
5:15 PM 53.6 °F 53.6 °F 100% 30.09 in 5.0 mi East 5.8 mph - 0.02 in   Overcast
5:35 PM 53.6 °F 53.6 °F 100% 30.08 in 5.0 mi East 4.6 mph - 0.04 in   Overcast
5:55 PM 53.6 °F 53.6 °F 100% 30.08 in 6.0 mi East 6.9 mph - 0.05 in   Overcast
6:15 PM 53.6 °F 53.6 °F 100% 30.08 in 7.0 mi East 5.8 mph - 0.02 in   Overcast
6:35 PM 53.6 °F 53.6 °F 100% 30.08 in 7.0 mi East 6.9 mph - 0.03 in   Overcast
6:55 PM 53.6 °F 53.6 °F 100% 30.08 in 7.0 mi ESE 8.1 mph - 0.04 in   Mostly Cloudy
7:15 PM 53.6 °F 53.6 °F 100% 30.08 in 8.0 mi East 6.9 mph - 0.01 in   Overcast
7:35 PM 53.6 °F 53.6 °F 100% 30.09 in 7.0 mi East 4.6 mph - 0.02 in   Overcast
7:55 PM 53.6 °F 53.6 °F 100% 30.10 in 5.0 mi East 3.5 mph - 0.04 in   Overcast
8:15 PM 53.6 °F 53.6 °F 100% 30.10 in 4.0 mi East 4.6 mph - 0.03 in   Overcast
8:35 PM 53.6 °F 53.6 °F 100% 30.10 in 5.0 mi East 5.8 mph - 0.07 in   Overcast
8:55 PM 53.6 °F 53.6 °F 100% 30.10 in 5.0 mi East 5.8 mph - 0.10 in   Overcast
9:15 PM 53.6 °F 53.6 °F 100% 30.10 in 5.0 mi East 6.9 mph - 0.01 in   Overcast
9:35 PM 53.6 °F 53.6 °F 100% 30.11 in 5.0 mi East 6.9 mph - 0.02 in   Overcast
9:55 PM 53.6 °F 53.6 °F 100% 30.08 in 4.0 mi ESE 9.2 mph - 0.04 in   Overcast
10:15 PM 53.6 °F 53.6 °F 100% 30.08 in 7.0 mi East 8.1 mph 16.1 mph N/A   Overcast
10:35 PM 53.6 °F 53.6 °F 100% 30.10 in 10.0 mi East 6.9 mph - N/A   Overcast
10:55 PM 53.6 °F 53.6 °F 100% 30.10 in 10.0 mi ESE 6.9 mph - N/A   Overcast
11:15 PM 51.8 °F 51.8 °F 100% 30.08 in 5.0 mi ESE 9.2 mph - N/A   Overcast
11:35 PM 51.8 °F 51.8 °F 100% 30.09 in 10.0 mi ESE 5.8 mph - N/A   Overcast
11:55 PM 51.8 °F 51.8 °F 100% 30.09 in 10.0 mi ESE 6.9 mph - N/A   Overcast